EHI
6 7 10 14 14 12 11 11 13 15 15 16 15 13 11 9 7 6 5 4 4 4 4 4 3 2 1 2 2 1 1 1 1 0 0 0 0 0 0 0 0 0 0
6 7 12 17 19 16 14 13 14 15 15 16 15 13 10 8 6 6 5 4 5 5 4 4 3 3 2 2 2 1 1 2 2 1 0 0 0 0 0 0 0 0 0
6 8 12 18 21 20 19 17 15 15 15 15 15 13 9 7 6 5 4 4 5 4 4 3 3 3 3 3 2 2 2 2 2 1 0 0 0 0 0 0 0 0 0
6 7 11 16 20 20 20 19 17 15 14 14 15 14 10 7 6 5 4 4 4 3 3 3 3 3 4 3 3 3 2 2 1 0 0 0 0 0 0 0 0 0 0
6 6 9 15 18 18 18 18 17 15 14 14 15 15 11 7 6 5 5 4 3 3 3 3 3 4 4 4 3 3 3 2 1 0 0 0 0 0 0 0 0 0 0
4 6 9 13 16 16 17 18 17 16 15 15 14 13 10 8 6 5 4 4 3 3 3 3 3 4 4 4 3 3 3 2 1 0 0 0 0 0 0 0 0 0 0
3 6 10 13 15 17 19 19 18 16 16 16 15 12 9 7 6 5 4 4 3 3 3 3 4 5 5 5 4 3 3 2 1 0 0 0 0 0 0 0 0 0 0
4 7 12 16 17 18 20 20 18 15 15 16 15 12 9 7 6 6 5 4 3 3 3 3 4 5 6 6 5 4 3 3 1 0 0 0 0 0 0 1 1 1 0
5 8 14 18 19 18 19 20 17 13 13 14 14 11 7 6 6 6 6 5 4 3 3 3 4 5 6 6 6 5 4 3 2 1 1 1 1 1 1 2 2 2 1
6 8 13 18 19 18 18 17 14 11 10 10 10 7 6 5 5 5 4 4 4 4 4 4 4 5 6 7 7 6 6 5 3 2 2 2 2 2 3 3 3 3 3
5 7 11 17 19 18 18 16 12 9 7 6 5 4 4 4 5 4 4 4 5 5 6 6 6 6 7 7 7 7 7 7 5 4 4 4 3 3 3 3 3 3 3
4 5 10 16 19 18 18 16 12 9 6 4 3 1 2 3 3 3 4 4 5 6 6 6 6 6 7 7 8 9 9 8 7 6 6 5 4 3 3 3 3 3 3
2 5 10 14 17 17 17 16 12 9 7 5 3 2 1 2 2 2 3 3 3 4 5 6 6 6 6 7 8 9 9 8 7 6 6 6 5 4 3 3 4 5 5
3 6 10 13 14 16 17 14 11 9 8 6 4 3 3 2 2 2 1 1 1 2 4 5 6 6 6 6 7 8 8 7 7 6 6 6 6 5 4 5 6 8 8
6 8 10 11 12 13 14 12 9 9 10 8 5 4 4 5 4 3 2 1 0 1 1 3 5 5 6 6 6 6 6 6 6 6 6 6 6 5 4 5 7 9 10
9 9 9 9 9 9 10 9 8 10 9 7 6 6 6 6 6 5 3 2 1 0 0 1 2 3 3 4 4 3 3 4 6 6 6 6 5 4 3 2 3 6 7
9 9 8 8 7 6 6 6 7 9 8 6 6 6 6 6 6 5 3 2 1 1 0 0 0 1 1 2 2 1 1 3 5 5 6 6 5 4 4 2 2 3 3
8 8 8 7 5 4 4 4 5 6 5 4 5 6 6 6 6 5 3 1 2 1 0 0 0 0 0 0 0 0 1 3 3 4 5 6 5 5 5 3 3 2 2
7 6 5 4 3 4 4 4 4 4 3 2 4 5 6 6 6 6 4 2 2 3 2 1 1 2 1 0 0 0 1 3 3 3 4 5 4 4 3 2 3 3 3
4 3 2 2 3 4 4 4 3 3 1 1 2 3 5 6 6 6 4 2 2 4 4 3 3 3 2 1 0 1 3 5 5 4 3 2 2 2 1 1 1 2 2
1 0 1 3 3 3 3 2 1 1 1 0 1 2 3 4 4 5 5 3 3 5 5 4 4 4 3 1 0 1 4 6 6 5 4 2 1 1 0 0 0 0 1
0 1 3 4 4 3 2 1 0 0 0 0 0 1 2 3 3 4 5 4 4 5 5 5 6 6 5 3 1 0 2 4 6 6 5 4 2 1 0 0 0 0 0
0 1 3 4 4 3 2 1 0 0 0 0 0 0 2 3 3 3 4 4 4 4 4 5 6 6 6 4 1 0 0 1 3 5 4 3 2 1 0 0 0 0 0
1 1 3 4 3 2 1 1 0 0 0 0 0 0 1 2 2 2 3 3 3 3 3 4 4 4 4 4 1 0 0 1 2 2 2 1 1 0 0 0 0 0 0
3 3 3 3 2 1 0 0 0 0 0 0 0 0 0 1 1 1 1 2 2 2 3 3 3 3 3 2 1 0 0 1 1 1 0 0 0 0 0 0 0 0 0
5 4 3 3 2 1 0 0 0 0 0 0 0 0 0 0 0 0 0 1 1 1 2 3 3 3 3 1 0 0 0 1 1 0 0 0 1 1 1 0 0 0 0
Wind_Speed
6 5 5 6 5 5 5 6 6 6 5 4 3 3 2 1 1 1 1 1 1 2 2 1 1 1 1 1 2 1 1 0 1 1 1 1 1 1 1 2 2 2 2
3 5 6 6 7 7 6 6 7 7 6 4 3 2 2 2 1 0 0 1 1 2 2 2 1 1 1 1 1 1 1 0 1 1 1 1 2 2 1 1 2 2 2
8 7 7 8 7 8 8 7 7 6 5 5 4 3 3 2 1 1 0 1 1 1 2 2 2 1 1 1 1 1 2 1 0 1 2 1 1 2 2 1 1 1 1
7 7 8 8 8 8 7 6 6 6 5 6 5 5 4 3 2 1 1 0 0 1 1 2 2 2 2 2 2 1 1 2 1 0 0 1 1 1 1 2 1 1 2
7 8 8 9 7 6 6 6 6 5 5 5 6 5 4 3 2 1 1 0 0 0 1 1 1 1 1 1 1 2 2 2 2 2 1 1 0 1 1 1 2 2 1
6 6 5 6 5 5 5 6 6 5 5 6 5 5 5 4 4 2 2 1 0 0 0 1 1 1 1 1 2 2 2 2 2 2 2 2 1 1 1 1 1 2 2
5 6 6 7 7 7 7 6 7 6 5 6 5 5 5 5 5 4 3 2 1 1 1 1 1 1 1 1 1 1 2 2 2 2 2 2 2 2 2 1 1 1 2
4 5 6 7 7 7 7 7 7 6 5 6 5 5 5 4 3 3 3 2 2 2 1 1 1 1 1 1 1 1 1 1 2 2 2 1 2 2 2 2 2 0 1
4 4 4 5 6 7 7 7 7 6 5 5 5 4 4 4 4 3 3 2 2 1 1 1 1 0 0 1 1 1 1 1 1 1 1 1 1 1 1 2 2 2 1
3 4 4 5 5 6 5 5 6 6 4 4 4 4 4 4 4 3 3 3 2 1 1 1 1 1 1 1 1 1 1 1 1 1 1 1 1 1 1 1 1 2 2
3 3 4 4 4 5 5 5 5 4 4 4 3 3 3 3 3 3 3 3 2 2 2 1 1 1 1 1 1 1 1 2 1 1 1 1 1 1 1 1 1 1 2
2 2 3 4 4 4 5 6 5 5 4 4 3 4 3 3 3 3 3 3 3 2 2 2 1 1 1 1 1 1 1 2 2 1 1 1 1 1 0 1 1 1 1
2 2 2 3 4 5 5 4 5 5 4 4 4 3 3 3 4 3 3 3 3 2 2 2 2 1 1 1 1 1 1 1 2 2 2 1 1 1 1 1 1 1 1
2 2 2 2 2 4 5 5 4 4 4 4 4 4 4 4 4 3 3 3 3 3 3 2 2 2 1 2 2 2 1 1 1 1 1 2 2 2 2 1 2 1 1
2 3 2 2 1 2 3 4 4 4 4 5 5 4 3 3 3 3 3 3 3 3 3 2 2 2 2 2 2 2 2 2 1 1 1 2 2 2 2 1 2 2 1
3 3 3 3 3 3 3 3 3 4 4 4 4 4 3 3 3 3 3 3 3 3 2 3 2 2 2 2 3 3 2 2 2 1 1 1 1 1 2 2 2 3 3
3 3 3 3 3 3 3 3 3 3 3 4 4 3 3 3 3 4 3 4 4 3 3 3 2 2 2 2 3 4 3 2 2 2 2 1 1 1 1 1 1 2 3
2 2 2 2 2 2 2 2 2 3 3 3 3 3 3 3 3 3 4 4 3 3 3 3 3 3 3 2 3 4 3 2 1 2 2 1 1 2 1 1 1 1 2
1 1 1 2 2 2 3 3 2 2 2 2 2 3 3 4 4 4 4 4 3 3 3 3 3 3 3 3 4 4 3 2 2 2 1 2 2 2 1 1 1 2 2
2 2 2 3 3 2 2 3 2 1 1 2 2 2 3 4 4 4 4 3 3 3 3 3 3 4 4 4 6 6 3 2 2 1 1 2 2 2 2 2 2 2 3
2 3 3 2 2 1 3 3 2 1 1 0 0 1 2 2 3 3 2 3 3 3 3 3 2 3 4 4 6 6 4 4 3 2 1 2 2 2 3 3 3 4 3
2 3 3 2 1 2 3 2 1 1 0 1 0 1 1 1 1 2 1 2 2 3 2 2 2 2 2 3 4 5 5 4 3 3 2 2 3 2 2 2 2 2 2
2 2 2 2 2 1 2 2 1 0 1 1 1 0 1 1 1 1 1 1 1 1 1 1 2 1 1 1 3 4 5 5 3 2 2 2 2 2 1 1 1 1 1
2 2 2 2 0 0 0 1 0 1 2 1 1 0 1 1 1 1 1 1 1 1 1 1 1 1 0 0 1 1 2 2 2 1 0 1 1 1 0 0 0 0 1
1 2 2 2 1 1 0 0 1 2 1 1 0 0 1 1 1 1 1 0 1 1 2 2 2 2 2 2 2 2 2 2 2 2 1 1 0 0 0 0 0 0 0
2 2 2 2 1 1 0 0 1 2 2 1 0 0 0 1 1 1 1 3 2 1 0 1 2 2 3 2 3 3 3 3 4 3 2 1 1 2 1 1 1 1 1
Wind_Direction
202 169 170 166 159 162 163 162 159 155 148 145 149 148 154 142 129 153 161 166 161 148 148 145 126 130 152 179 162 137 126 112 98 79 11 341 301 255 246 238 229 237 235
179 176 173 172 174 175 169 165 166 164 164 163 154 143 132 132 136 126 116 190 181 165 168 160 147 152 159 128 128 136 136 112 99 124 99 345 343 329 288 242 232 240 232
193 187 185 183 177 182 180 175 170 166 163 150 126 106 86 75 82 90 220 265 168 156 162 157 159 175 175 180 178 157 150 163 142 118 146 153 247 311 323 294 273 259 239
196 190 187 187 189 188 176 166 162 160 159 152 151 148 151 166 189 185 195 236 125 141 149 149 158 176 172 174 199 176 167 160 181 184 193 174 168 178 321 327 321 295 254
195 194 195 191 186 175 166 157 151 154 156 158 160 153 156 167 151 137 146 137 31 85 138 146 145 158 165 180 180 178 177 182 184 182 171 163 145 161 175 298 325 335 309
190 189 187 174 167 158 154 153 151 157 158 158 159 162 164 157 148 154 158 145 66 319 166 137 140 172 186 194 197 191 186 191 190 187 178 170 171 183 177 220 286 310 317
177 174 172 174 170 164 163 160 159 163 163 160 165 168 168 164 168 170 174 170 185 221 218 163 165 192 212 210 189 176 192 189 186 191 196 196 191 166 169 180 232 285 310
170 177 179 176 172 170 169 166 165 166 166 165 168 167 165 163 168 171 170 178 194 210 196 169 175 187 189 189 169 166 198 176 183 189 185 192 198 186 187 178 174 247 320
169 167 166 165 165 168 173 171 168 169 169 166 159 161 164 165 168 166 163 174 184 185 165 158 156 176 172 171 159 167 196 168 183 186 182 192 216 206 207 189 178 174 231
161 167 162 160 164 169 167 158 158 167 164 161 165 166 170 167 162 159 170 177 177 162 149 139 170 183 178 162 150 165 184 163 191 185 168 198 223 198 201 187 180 175 189
176 183 177 165 157 151 149 148 152 152 155 166 164 156 163 162 162 172 183 184 179 167 168 181 190 204 198 176 157 185 180 177 192 185 167 205 192 176 182 157 164 178 182
163 153 163 154 148 152 152 153 159 163 171 172 160 158 166 167 172 183 190 184 181 178 172 170 179 213 206 190 183 200 195 193 202 202 174 215 171 171 163 160 182 205 204
107 96 114 157 159 159 155 159 165 168 161 154 155 161 170 181 191 192 185 178 179 180 173 171 190 214 219 201 195 192 192 191 196 194 188 203 170 189 203 194 208 219 212
135 128 129 138 150 156 155 158 162 164 155 148 157 172 189 195 194 191 184 181 181 182 185 185 195 209 214 205 192 178 174 171 180 184 186 195 196 205 211 214 222 214 200
143 151 151 137 124 134 148 154 158 159 159 162 169 184 192 191 186 184 185 183 188 190 181 174 189 202 199 216 199 182 175 176 196 210 200 203 200 200 207 213 210 202 209
183 174 164 156 166 174 169 156 164 167 161 172 182 184 177 183 191 190 184 181 189 186 175 183 189 200 219 224 204 180 171 177 196 224 235 225 213 219 231 232 216 200 207
188 180 185 188 181 176 168 166 172 166 164 179 184 183 180 191 202 196 183 190 196 190 194 203 196 209 232 218 199 187 173 183 204 215 222 230 269 272 265 264 260 238 232
192 184 181 179 165 152 137 149 162 170 177 183 188 185 184 194 197 191 196 205 200 196 204 212 210 210 231 218 198 186 170 174 204 231 225 218 272 269 251 255 283 275 265
172 172 161 141 127 136 146 147 159 166 178 194 198 197 194 198 196 201 205 209 201 203 206 206 206 211 235 218 192 173 166 181 221 237 235 220 247 265 219 204 267 292 295
92 102 98 97 104 117 129 129 144 148 194 213 209 209 202 202 203 210 212 210 202 205 202 209 212 211 223 208 187 174 172 184 217 249 252 238 245 252 203 203 220 257 274
88 96 96 99 122 131 122 119 124 187 266 339 221 210 206 206 201 200 203 197 196 189 194 210 226 222 224 207 190 178 177 187 194 212 242 255 244 231 223 213 218 230 231
73 87 97 84 71 106 120 123 176 230 70 61 18 236 219 217 182 169 186 178 177 183 202 218 237 236 222 202 199 191 188 183 180 200 221 237 225 220 226 228 227 202 178
105 99 110 90 52 77 134 156 253 131 100 77 28 354 31 35 94 133 139 139 152 182 207 218 225 232 207 190 184 186 183 178 181 202 211 230 226 223 228 245 211 170 155
122 112 104 102 52 325 139 184 231 119 109 93 33 50 75 41 40 60 124 145 176 193 200 212 240 249 251 219 178 182 179 174 180 190 162 179 178 167 181 285 225 182 186
144 140 152 175 208 230 328 107 138 129 115 112 89 97 102 112 87 58 42 159 207 213 203 209 212 208 228 243 223 189 191 193 188 147 111 109 114 128 15 333 323 148 158
158 149 162 177 199 198 250 313 137 143 143 139 238 202 137 132 127 113 47 34 46 22 275 210 196 225 233 224 188 188 189 184 163 140 153 188 205 212 224 234 249 237 226